Wind_Speed
23 23 23 23 23 24 25 25 26 27 27 28 29 29 30 32 34 34 35 35 34 34 36 36 36 35 34 34 34 33 33 34 35 34 35 35 35 36
23 23 23 24 24 25 25 25 26 27 27 27 27 28 29 31 33 34 35 35 36 36 36 36 37 36 36 35 35 34 34 34 34 35 35 35 35 36
22 21 21 22 22 23 23 24 24 25 25 24 25 26 28 29 30 31 33 35 37 37 36 36 36 36 37 37 37 36 36 35 35 35 36 36 36 36
21 20 21 21 21 21 22 22 22 22 23 23 24 24 25 26 27 29 31 32 34 35 35 35 36 36 36 36 37 37 36 37 36 36 36 37 37 37
19 20 20 20 20 20 21 21 21 22 23 23 23 23 24 24 25 26 27 28 30 31 33 34 34 34 34 34 35 36 35 36 37 37 37 37 38 37
19 20 21 21 20 20 20 20 19 20 21 22 22 22 23 23 23 24 24 25 27 29 30 31 32 32 32 32 32 33 34 35 36 36 36 37 37 37
21 21 21 21 21 21 20 20 19 19 20 21 21 22 22 23 23 23 23 24 26 28 29 30 31 32 32 31 32 32 32 33 34 35 36 37 37 37
20 20 20 21 21 19 19 19 19 19 19 20 20 20 21 21 21 21 21 22 24 26 27 28 29 30 31 32 32 32 33 33 34 36 36 37 37 37
19 20 21 20 19 18 18 18 18 18 18 18 19 19 19 19 20 20 20 21 22 23 24 26 28 28 30 31 32 32 33 33 34 34 35 36 37 37
19 19 20 20 19 18 18 18 18 18 18 18 19 18 18 18 19 19 19 20 21 21 23 24 26 27 28 29 30 32 32 32 32 33 33 35 36 36
18 18 19 20 19 18 18 18 17 18 18 19 18 18 18 18 18 19 19 19 19 20 22 23 24 25 26 28 30 30 31 32 32 32 32 33 34 35
18 19 19 19 18 17 17 17 16 16 16 17 17 17 17 17 18 18 18 18 19 20 21 23 23 24 25 27 28 30 31 32 32 32 32 32 32 33
18 18 19 18 17 17 17 17 16 15 14 15 16 17 17 17 17 17 17 17 18 19 20 21 22 23 25 26 28 29 29 30 31 31 32 31 31 32
18 18 19 19 18 16 16 15 16 15 14 14 15 16 16 15 15 15 16 17 18 19 20 20 21 22 23 25 26 27 28 29 30 31 31 31 32 32
18 19 18 18 19 17 15 15 16 16 15 15 16 16 16 15 15 14 15 16 17 18 19 19 19 20 21 22 23 24 25 26 28 30 31 31 32 33
18 19 19 19 18 17 16 16 16 16 16 16 16 16 15 14 14 14 15 16 16 16 17 18 17 18 19 20 21 21 23 25 26 28 29 30 31 32
19 19 19 18 17 16 16 17 17 16 16 17 16 15 15 15 14 15 16 16 17 17 16 17 16 16 17 18 19 20 21 22 24 26 27 28 29 30
19 19 18 18 17 16 16 17 17 17 17 17 16 16 16 16 15 16 16 16 16 16 16 16 16 16 16 17 18 19 21 21 22 23 24 25 26 27
18 18 18 17 17 17 17 17 17 17 17 17 16 16 16 16 15 15 15 15 15 15 16 16 16 15 16 17 18 18 19 20 20 21 22 24 25 26
18 18 18 18 18 17 17 17 17 18 17 16 16 16 16 16 15 15 14 14 15 15 15 15 15 14 15 16 16 16 17 18 19 20 21 22 23 24
18 18 18 18 18 18 18 18 18 18 17 17 17 16 16 16 15 15 15 14 14 14 14 14 14 14 15 15 15 16 17 18 19 20 21 22 23 24
19 19 19 19 18 18 18 18 18 18 18 18 18 17 16 17 16 16 16 15 15 15 15 15 15 15 15 16 17 16 16 17 18 19 20 21 22 23
19 19 19 19 19 19 19 19 19 19 19 19 18 17 16 17 16 16 16 16 16 15 15 15 15 15 15 16 16 16 16 17 17 18 19 19 20 21
Wind_Direction
298 296 294 291 288 287 285 282 280 277 274 271 268 265 263 259 258 258 257 257 255 254 252 251 251 251 250 249 250 250 247 246 245 245 245 246 247 247
299 299 297 295 293 289 286 284 282 280 276 272 270 268 264 262 260 259 259 258 255 254 253 251 251 251 250 250 250 249 246 246 246 245 245 246 247 247
304 301 298 299 296 292 289 287 284 280 276 273 272 270 266 264 263 262 260 260 258 255 253 252 251 250 249 249 248 248 246 246 247 247 247 246 246 247
307 304 302 303 301 298 294 290 286 281 277 275 273 272 268 265 265 264 263 261 259 256 253 252 251 252 250 249 247 247 246 246 247 248 248 247 246 246
307 307 305 304 304 300 297 291 286 281 278 277 276 272 270 268 267 265 262 261 259 257 254 252 252 252 250 249 248 247 246 246 246 247 248 248 246 246
309 310 310 308 308 305 301 297 290 284 280 278 276 274 273 271 270 268 264 261 259 258 255 252 251 251 250 249 248 247 246 246 247 247 247 247 247 247
311 311 311 312 310 307 302 299 297 291 284 280 278 277 275 274 271 270 266 263 261 259 257 253 250 250 249 249 248 247 247 247 247 248 248 247 246 247
314 314 315 314 313 309 303 300 297 293 288 282 280 279 277 275 272 269 265 263 262 258 257 255 252 250 250 249 249 249 248 248 248 248 248 247 246 247
320 319 317 318 317 314 309 305 299 296 292 288 286 282 279 274 273 271 267 267 264 262 260 259 257 255 253 252 251 250 250 249 248 248 248 247 248 248
323 322 321 320 318 316 313 309 303 298 296 293 290 285 283 278 274 271 267 265 264 263 263 262 260 258 255 254 253 251 249 249 249 249 248 248 248 248
330 328 325 325 323 321 318 314 307 301 299 297 293 288 286 282 279 276 273 270 266 264 264 264 262 261 259 258 254 253 252 251 251 252 252 251 249 248
333 333 331 329 327 323 321 322 318 310 304 300 297 293 290 287 282 279 277 275 272 269 267 266 264 263 262 260 257 255 254 252 251 251 251 252 252 251
335 334 334 333 330 325 323 323 323 317 309 307 305 300 295 289 286 284 281 278 276 273 271 269 268 267 267 265 263 259 256 252 250 250 250 250 252 252
335 335 335 334 332 328 327 327 328 323 318 315 313 309 304 298 293 289 285 282 279 277 275 273 270 269 269 268 266 262 258 254 252 251 251 251 252 252
336 336 335 334 334 333 332 331 330 327 324 322 318 315 311 304 295 290 287 285 283 279 275 275 273 269 270 269 266 263 260 256 254 253 253 253 252 252
335 335 334 335 334 335 336 334 331 327 325 325 321 317 314 309 300 294 290 288 288 285 278 275 275 272 270 269 267 265 264 259 256 254 254 253 252 251
331 333 336 338 337 335 334 334 334 330 327 328 326 322 318 314 306 299 293 289 287 286 283 277 273 273 273 270 267 266 265 263 259 256 255 255 254 253
335 336 337 339 339 335 332 331 332 331 330 331 328 325 321 317 310 304 299 294 289 286 284 283 279 275 272 271 270 267 266 264 261 258 255 255 255 254
335 336 337 338 337 335 333 331 331 331 331 332 330 328 326 321 314 309 306 302 295 291 288 287 285 281 276 272 269 268 268 267 264 261 259 257 258 256
338 339 340 339 339 338 337 334 331 332 332 330 327 327 327 324 321 316 313 308 303 298 293 291 287 284 279 275 273 274 273 271 269 267 264 263 260 258
336 336 337 337 337 337 336 335 335 335 332 329 328 328 329 327 325 322 318 314 309 304 299 294 288 284 283 281 279 281 280 275 272 269 267 265 263 261
336 335 335 334 333 332 333 335 336 333 333 333 332 329 327 327 323 320 319 315 310 306 300 297 294 288 286 285 280 279 279 277 275 273 270 267 264 262
333 333 334 334 333 332 332 333 333 333 332 331 331 330 328 327 324 321 319 317 313 309 306 301 297 291 290 288 283 280 281 282 281 277 273 271 268 265
Height
5727 5724 5722 5720 5718 5717 5716 5715 5714 5713 5713 5712 5711 5711 5710 5711 5712 5713 5714 5715 5717 5718 5720 5722 5724 5726 5728 5730 5732 5734 5737 5739 5742 5744 5747 5750 5752 5754
5721 5718 5716 5713 5711 5709 5708 5707 5705 5704 5704 5704 5703 5702 5702 5702 5703 5703 5704 5705 5706 5708 5709 5711 5713 5715 5717 5720 5722 5724 5727 5730 5733 5735 5738 5741 5743 5745
5715 5713 5710 5707 5705 5702 5701 5699 5697 5696 5696 5695 5694 5693 5693 5693 5693 5694 5694 5694 5695 5697 5698 5700 5702 5704 5706 5709 5712 5715 5718 5720 5723 5726 5729 5731 5734 5736
5710 5707 5704 5701 5699 5696 5694 5692 5690 5689 5688 5688 5687 5685 5685 5684 5684 5684 5684 5684 5684 5685 5687 5689 5692 5694 5696 5698 5701 5704 5707 5710 5714 5717 5719 5722 5724 5726
5705 5702 5699 5696 5693 5691 5688 5686 5684 5683 5682 5681 5679 5678 5677 5677 5676 5676 5675 5675 5675 5676 5678 5680 5682 5684 5686 5688 5691 5694 5697 5701 5704 5707 5709 5712 5714 5716
5700 5697 5693 5690 5687 5685 5682 5680 5678 5676 5675 5674 5673 5672 5671 5670 5669 5668 5668 5668 5668 5668 5669 5671 5673 5675 5677 5680 5682 5685 5688 5690 5694 5696 5699 5702 5704 5706
5695 5691 5688 5685 5682 5679 5676 5674 5672 5670 5669 5668 5666 5665 5664 5663 5662 5661 5661 5660 5660 5661 5661 5663 5665 5667 5668 5671 5673 5676 5678 5681 5684 5686 5689 5691 5694 5696
5690 5686 5683 5680 5676 5673 5671 5668 5667 5665 5663 5661 5660 5659 5658 5656 5655 5654 5653 5653 5654 5654 5654 5655 5656 5658 5660 5662 5664 5666 5669 5671 5674 5677 5679 5682 5684 5687
5685 5682 5678 5675 5671 5668 5666 5663 5661 5659 5657 5656 5654 5652 5651 5650 5648 5647 5646 5646 5647 5647 5647 5648 5648 5649 5651 5653 5655 5657 5660 5662 5664 5667 5669 5672 5675 5677
5681 5677 5674 5670 5667 5663 5661 5658 5656 5654 5652 5650 5648 5647 5645 5643 5641 5640 5640 5640 5640 5640 5640 5641 5641 5641 5643 5644 5646 5648 5650 5653 5655 5657 5659 5662 5664 5667
5678 5674 5670 5666 5663 5659 5656 5653 5651 5649 5646 5644 5642 5641 5639 5637 5635 5634 5633 5633 5634 5633 5633 5633 5633 5634 5635 5636 5637 5639 5641 5643 5645 5648 5650 5652 5654 5657
5674 5670 5666 5662 5659 5655 5652 5649 5646 5644 5641 5639 5637 5635 5633 5631 5629 5628 5627 5627 5627 5627 5626 5626 5626 5626 5627 5627 5628 5630 5631 5633 5636 5638 5641 5643 5645 5647
5671 5667 5663 5659 5655 5651 5648 5645 5642 5639 5637 5634 5632 5629 5627 5625 5624 5622 5621 5621 5620 5620 5619 5618 5619 5618 5619 5619 5619 5620 5622 5624 5626 5629 5631 5634 5636 5638
5668 5664 5660 5656 5652 5648 5644 5641 5638 5635 5632 5630 5627 5625 5622 5620 5619 5617 5616 5615 5614 5613 5612 5611 5611 5611 5611 5611 5611 5612 5613 5615 5617 5620 5622 5624 5627 5629
5665 5660 5656 5652 5648 5644 5641 5638 5635 5632 5629 5626 5623 5621 5618 5616 5614 5612 5611 5610 5608 5607 5606 5605 5604 5604 5604 5604 5604 5604 5605 5607 5608 5611 5613 5615 5618 5620
5661 5657 5653 5649 5645 5641 5638 5635 5632 5629 5625 5622 5619 5616 5614 5611 5609 5607 5606 5604 5603 5601 5600 5599 5598 5597 5597 5597 5597 5597 5598 5599 5600 5602 5603 5605 5608 5610
5658 5654 5650 5646 5642 5639 5636 5632 5629 5625 5622 5619 5616 5613 5610 5607 5605 5602 5601 5599 5597 5596 5594 5593 5592 5591 5591 5590 5590 5590 5590 5591 5592 5593 5594 5596 5598 5600
5655 5651 5647 5643 5640 5636 5633 5630 5626 5623 5619 5616 5613 5609 5606 5603 5601 5598 5596 5594 5592 5590 5588 5587 5586 5585 5585 5584 5584 5584 5584 5584 5584 5585 5586 5587 5589 5590
5653 5649 5644 5641 5637 5634 5630 5627 5623 5620 5616 5613 5609 5606 5603 5600 5597 5594 5591 5589 5587 5585 5583 5582 5580 5579 5579 5578 5578 5578 5577 5577 5577 5578 5578 5579 5580 5581
5650 5646 5642 5639 5635 5631 5627 5624 5620 5617 5613 5610 5606 5603 5599 5596 5593 5590 5587 5585 5582 5580 5578 5577 5575 5574 5573 5573 5572 5572 5571 5570 5570 5570 5570 5570 5571 5572
5648 5644 5640 5636 5632 5628 5625 5621 5617 5613 5610 5606 5602 5599 5596 5592 5589 5586 5583 5580 5578 5575 5574 5572 5570 5569 5568 5567 5566 5565 5565 5564 5564 5563 5563 5563 5563 5564
5646 5642 5638 5634 5630 5626 5622 5618 5614 5610 5606 5602 5599 5595 5592 5588 5585 5582 5579 5576 5573 5571 5569 5567 5565 5564 5562 5561 5560 5559 5558 5558 5557 5556 5556 5556 5555 5556
5643 5639 5635 5631 5626 5622 5618 5614 5610 5606 5602 5598 5595 5591 5588 5584 5581 5578 5575 5572 5569 5566 5564 5562 5560 5558 5557 5555 5554 5553 5552 5551 5550 5549 5549 5549 5548 5548